Weather History for Twin Falls, ID

Change the Weather History Date:

Wednesday, December 5, 2012

  Actual Average Record
Temperature  
Mean Temperature 49 °F -  
Max Temperature 56 °F 39 °F 56 °F (2012)
Min Temperature 41 °F 20 °F -3 °F (1992)
Degree Days  
Heating Degree Days 16 35  
Month to date heating degree days 95 173  
Since 1 July heating degree days 1149 1611  
Cooling Degree Days 0 0  
Month to date cooling degree days 0 0  
Year to date cooling degree days 970 680  
Moisture  
Dew Point 41 °F    
Average Humidity 75    
Maximum Humidity 86    
Minimum Humidity 64    
Precipitation  
Precipitation 0.58 in 0.04 in 0.58 in (2012)
Month to date precipitation 1.41 0.19  
Year to date precipitation 9.75 9.62  
Sea Level Pressure  
Sea Level Pressure 30.00 in    
Wind  
Wind Speed 11 mph (SSW)    
Max Wind Speed 22 mph    
Max Gust Speed 25 mph    
Visibility 9 miles    
Events Rain    
T = Trace of Precipitation, MM = Missing Value Source: NWS Daily Summary

Daily Weather History Graph

Daily Weather History Graph

Search for Another Location

Airport:

Trip Planner

Search our weather history database for the weather conditions in past years. The results will help you decide how hot, cold, wet, or windy it might be!

Date:

Astronomy

Dec. 05, 2012 Rise Set
Actual Time 7:52 AM MST 5:05 PM MST
Civil Twilight 7:20 AM MST 5:36 PM MST
Nautical Twilight 6:45 AM MST 6:11 PM MST
Astronomical Twilight 6:11 AM MST 6:45 PM MST
Moon No Moon Rise 12:12 PM MST (12/5)
Length of Visible Light 10h 15m
Length of Day
9h 12m
Waning Gibbous, 59% of the Moon is Illuminated
Dec 5
Waning Gibbous
Dec 6
Last Quarter
Dec 13
New
Dec 19
First Quarter
Dec 28
Full

Hourly Weather History & Observations

Time (MST) Temp. Windchill Dew Point Humidity Pressure Visibility Wind Dir Wind Speed Gust Speed Precip Events Conditions
12:53 AM 48.9 °F - 42.1 °F 77% 30.01 in 8.0 mi South 12.7 mph - 0.05 in Rain Light Rain
1:53 AM 48.9 °F - 42.1 °F 77% 29.98 in 7.0 mi South 13.8 mph - 0.05 in Rain Rain
2:53 AM 48.9 °F - 43.0 °F 80% 29.98 in 8.0 mi South 11.5 mph - 0.06 in Rain Light Rain
3:53 AM 48.9 °F - 42.1 °F 77% 29.96 in 10.0 mi South 11.5 mph - 0.03 in Rain Light Rain
4:53 AM 50.0 °F - 42.1 °F 74% 29.96 in 5.0 mi South 8.1 mph - 0.07 in Rain Rain
5:53 AM 48.0 °F - 43.0 °F 83% 29.98 in 6.0 mi SSW 6.9 mph - 0.10 in Rain Rain
7:53 AM 48.0 °F - 43.0 °F 83% 29.99 in 7.0 mi South 9.2 mph - 0.07 in Rain Light Rain
8:53 AM 48.0 °F - 43.0 °F 83% 30.00 in 8.0 mi SSW 11.5 mph - 0.03 in Rain Light Rain
9:53 AM 48.9 °F - 42.1 °F 77% 30.01 in 10.0 mi SSW 13.8 mph - 0.02 in   Overcast
10:53 AM 50.0 °F - 41.0 °F 71% 30.02 in 10.0 mi SW 13.8 mph 21.9 mph N/A   Overcast
11:53 AM 51.1 °F - 43.0 °F 74% 30.01 in 10.0 mi SW 11.5 mph - N/A   Overcast
12:53 PM 53.1 °F - 44.1 °F 71% 29.99 in 10.0 mi SW 11.5 mph - N/A   Overcast
1:53 PM 54.0 °F - 43.0 °F 66% 29.98 in 10.0 mi WSW 19.6 mph - N/A   Mostly Cloudy
2:53 PM 54.0 °F - 41.0 °F 62% 29.97 in 10.0 mi WSW 16.1 mph - N/A   Mostly Cloudy
3:53 PM 50.0 °F - 42.1 °F 74% 29.99 in 10.0 mi WSW 11.5 mph - 0.00 in Rain Light Rain
4:53 PM 48.9 °F - 42.1 °F 77% 30.00 in 10.0 mi SSW 6.9 mph - 0.01 in   Overcast
5:53 PM 46.9 °F - 39.9 °F 77% 30.01 in 10.0 mi SW 8.1 mph - N/A   Clear
6:53 PM 44.1 °F 38.6 °F 37.9 °F 79% 30.04 in 10.0 mi SSW 10.4 mph - N/A   Mostly Cloudy
7:53 PM 43.0 °F 38.2 °F 37.9 °F 82% 30.04 in 10.0 mi South 8.1 mph - N/A   Partly Cloudy
8:53 PM 42.1 °F 37.1 °F 37.0 °F 82% 30.04 in 10.0 mi South 8.1 mph - N/A   Scattered Clouds
9:53 PM 41.0 °F 36.4 °F 36.0 °F 82% 30.05 in 10.0 mi South 6.9 mph - N/A   Mostly Cloudy
10:53 PM 41.0 °F 35.8 °F 36.0 °F 82% 30.04 in 10.0 mi South 8.1 mph - N/A   Mostly Cloudy
11:53 PM 42.1 °F 37.1 °F 36.0 °F 79% 30.04 in 10.0 mi South 8.1 mph - N/A   Mostly Cloudy